Home > Weather > Timmins > Past weeks

Flag for Canada Weather for the Past 2 Weeks in Timmins, Ontario, Canada

Now
-18 °F

Light snow. More clouds than sun.


Feels Like: -41 °F
Forecast: N/A
Wind: 13 mph from Northwest

Location: Timmins

Current Time: Feb 12, 2016 at 6:41:07 PM

Latest Report: Feb 12, 2016 at 5:00 PM


Visibility: 4 mi

Pressure: 30.16 "Hg

Humidity: 62%

Dew point: -27 °F

Location of TimminsLocation

Historic Weather in Timmins — Graph

°F

Timmins Temperature Yesterday

Maximum temperature yesterday: 0 °F (at 4:00 PM)
Minimum temperature yesterday: -24 °F (at 7:00 AM)
Average temperature yesterday: -11 °F

High & Low Weather Summary for the Past Weeks

 TemperatureHumidityPressure
High34 °F (Jan 31, 2:00 AM)100% (Jan 30, 5:00 PM)30.33 "Hg (Jan 30, 5:00 PM)
Low-24 °F (Feb 11, 7:00 AM)57% (Feb 12, 11:00 AM)29.35 "Hg (Jan 30, 3:00 PM)
Average6 °F81%29.90 "Hg
* Reported Jan 28 5:00 PM — Feb 12 5:00 PM, Timmins, Weather by CustomWeather, © 2016

Note: Actual official high and low records may vary slightly from our data, if they occured in-between our weather recording intervals... More about our weather records

Advertising

Timmins Weather History for the Previous 24 Hours

 ConditionsComfort  
Time TempWeatherWind HumidityBarometerVisibility
5:00 PM
Fri, Feb 12
-18 °FLight snow. More clouds than sun.13 mph62%30.16 "Hg4 mi
4:00 PM-18 °FLight snow. Broken clouds.13 mph62%30.14 "Hg5 mi
3:00 PM-18 °FLight snow. More clouds than sun.14 mph62%30.11 "Hg3 mi
2:00 PM-17 °FLight snow. Low clouds.15 mph63%30.10 "Hg3 mi
1:00 PM-17 °FSnow flurries. Partly sunny.14 mph63%30.09 "Hg3 mi
12:00 PM-17 °FScattered clouds.12 mph63%30.09 "Hg10 mi
11:00 AM-17 °FScattered clouds.16 mph57%30.08 "Hg10 mi
10:00 AM-18 °FScattered clouds.12 mph69%30.06 "Hg10 mi
9:00 AM-17 °FBroken clouds.21 mph69%30.04 "Hg10 mi
8:00 AM-13 °FLight snow. Partly sunny.20 mph69%30.01 "Hg6 mi
7:00 AM-9 °FLight snow. Mostly cloudy.15 mph77%29.97 "Hg10 mi
6:00 AM-4 °FLight snow. Overcast.13 mph84%29.94 "Hg3 mi
5:00 AM-4 °FLight snow. Passing clouds.6 mph84%29.92 "Hg5 mi
4:00 AM-4 °FLight snow. Passing clouds.2 mph84%29.92 "Hg5 mi
3:00 AM-6 °FLight snow. Overcast.7 mph84%29.93 "Hg5 mi
2:00 AM-4 °FLight snow. Passing clouds.5 mph84%29.92 "Hg15 mi
1:00 AM-8 °FLight snow. Overcast.2 mph84%29.94 "Hg3 mi
12:00 AM-8 °FLight snow. Overcast.2 mph77%29.96 "Hg3 mi
11:51 PM
Thu, Feb 11
-8 °FLight snow. Overcast.2 mph84%29.96 "Hg3 mi
11:00 PM-9 °FPassing clouds.5 mph84%29.97 "Hg15 mi
10:00 PM-9 °FPassing clouds.8 mph84%29.99 "Hg15 mi
9:00 PM-9 °FPassing clouds.5 mph77%30.01 "Hg15 mi
8:00 PM-6 °FPassing clouds.5 mph84%30.03 "Hg15 mi
7:00 PM-6 °FPassing clouds.3 mph84%30.04 "Hg15 mi
6:00 PM-2 °FPassing clouds.5 mph77%30.04 "Hg15 mi
Weather by CustomWeather, © 2016

See weather overviewHow to use our weather pages